CW9203 Weather Reports


time (UTC)temp
C
wind
direction
speed
KPH
gust
KPH
rain 1hr
cm
rain 24hr
cm
rain mn
cm
humidity
%
barometer
mb
20190321200305 19 19 0.0 0.0 0.00 0.00 0.00 91 1027.3
20190321194304 19 36 0.0 0.0 0.00 0.00 0.00 94 1027.3
20190321193804 19 36 0.0 0.0 0.00 0.00 0.00 94 1027.3
20190321193304 18 36 0.0 0.0 0.00 0.00 0.00 94 1027.2
20190321191805 18 36 0.0 0.0 0.00 0.00 0.00 96 1027.2
20190321191304 18 36 0.0 0.0 0.00 0.00 0.00 97 1027.2
20190321190804 17 36 0.0 0.0 0.00 0.00 0.00 96 1027.2
20190321184805 17 36 0.0 0.0 0.00 0.00 0.00 96 1027.1
20190321183305 17 36 0.0 0.0 0.00 0.00 0.00 95 1027.0
20190321181804 17 36 0.0 0.0 0.00 0.00 0.00 95 1026.9
20190321181305 17 36 0.0 0.0 0.00 0.00 0.00 95 1026.9
20190321180805 17 36 0.0 0.0 0.00 0.00 0.00 95 1026.8
20190321180304 17 36 0.0 0.0 0.00 0.00 0.00 95 1026.8
20190321174804 17 36 0.0 0.0 0.00 0.00 0.00 95 1026.7
20190321173804 17 36 0.0 0.0 0.00 0.00 0.00 95 1026.7
20190321173305 17 36 0.0 0.0 0.00 0.00 0.00 95 1026.7
20190321171805 17 36 0.0 0.0 0.00 0.00 0.00 94 1026.6
20190321171304 17 36 0.0 0.0 0.00 0.00 0.00 95 1026.6
20190321170804 17 36 0.0 0.0 0.00 0.00 0.00 95 1026.5
20190321170304 17 36 0.0 0.0 0.00 0.00 0.00 95 1026.4
20190321164804 17 36 0.0 0.0 0.00 0.00 0.00 94 1026.3
20190321163805 17 36 0.0 0.0 0.00 0.00 0.00 94 1026.3
20190321163305 17 36 0.0 0.0 0.00 0.00 0.00 94 1026.3
20190321161805 18 36 0.0 0.0 0.00 0.00 0.00 94 1026.3
20190321161304 18 36 0.0 0.0 0.00 0.00 0.00 94 1026.2
20190321160805 18 36 0.0 0.0 0.00 0.00 0.00 95 1026.2
20190321160305 17 36 0.0 0.0 0.00 0.00 0.00 95 1026.2
20190321154304 17 36 0.0 0.0 0.00 0.00 0.00 94 1026.2
20190321153805 17 36 0.0 0.0 0.00 0.00 0.00 94 1026.3
20190321153304 17 36 0.0 0.0 0.00 0.00 0.00 94 1026.3
20190321151305 17 36 0.0 0.0 0.00 0.00 0.00 94 1026.4
20190321150804 17 36 0.0 0.0 0.00 0.00 0.00 94 1026.4
20190321150305 17 36 0.0 0.0 0.00 0.00 0.00 93 1026.5
20190321144805 17 36 0.0 0.0 0.00 0.00 0.00 93 1026.5
20190321144305 17 36 0.0 0.0 0.00 0.00 0.00 93 1026.5
20190321143805 18 36 0.0 0.0 0.00 0.00 0.00 92 1026.5
20190321143304 18 36 0.0 0.0 0.00 0.00 0.00 92 1026.5
20190321141805 18 36 0.0 0.0 0.00 0.00 0.00 92 1026.6
20190321140804 18 36 0.0 0.0 0.00 0.00 0.00 91 1026.7
20190321140305 18 36 0.0 0.0 0.00 0.00 0.00 91 1026.8
20190321134804 18 36 0.0 0.0 0.00 0.00 0.00 91 1026.8
20190321134304 18 27 0.0 0.0 0.00 0.00 0.00 91 1026.8
20190321133304 18 27 0.0 0.0 0.00 0.00 0.00 90 1026.8
20190321131804 19 27 0.0 0.0 0.00 0.00 0.00 90 1026.9
20190321131304 19 27 0.0 0.0 0.00 0.00 0.00 89 1026.9
20190321130805 19 30 0.0 0.0 0.00 0.00 0.00 89 1026.9
20190321130305 19 36 0.0 0.0 0.00 0.00 0.00 89 1026.9
20190321124804 19 7 0.0 0.0 0.00 0.00 0.00 90 1026.9
20190321124305 19 7 0.0 0.0 0.00 0.00 0.00 90 1026.9
20190321123804 19 358 0.0 0.0 0.00 0.00 0.00 90 1026.9
20190321123304 19 358 0.0 0.0 0.00 0.00 0.00 90 1026.9
20190321120804 19 317 0.0 0.0 0.00 0.00 0.00 90 1027.0
20190321120305 19 317 0.0 0.0 0.00 0.00 0.00 90 1026.9
20190321114304 19 317 0.0 0.0 0.00 0.00 0.00 90 1027.1
20190321113804 19 317 0.0 0.0 0.00 0.00 0.00 90 1027.1
20190321113304 19 317 0.0 0.0 0.00 0.00 0.00 90 1027.1
20190321111804 18 282 0.0 0.0 0.00 0.00 0.00 90 1027.1
20190321111305 18 282 0.0 0.0 0.00 0.00 0.00 90 1027.1
20190321110824 18 282 0.0 0.0 0.00 0.00 0.00 90 1027.0
20190321110304 18 282 0.0 0.0 0.00 0.00 0.00 90 1027.0
20190321104804 19 282 0.0 0.0 0.00 0.00 0.00 89 1026.9
20190321104305 19 280 0.0 0.0 0.00 0.00 0.00 89 1026.9
20190321103305 19 281 0.0 0.0 0.00 0.00 0.00 90 1027.0
20190321101804 19 280 0.0 0.0 0.00 0.00 0.00 89 1026.9
20190321101304 19 280 0.0 0.0 0.00 0.00 0.00 89 1026.9
20190321100805 19 281 0.0 0.0 0.00 0.00 0.00 89 1026.8
20190321100304 19 282 0.0 0.0 0.00 0.00 0.00 89 1026.7
20190321094304 19 281 0.0 0.0 0.00 0.00 0.00 88 1026.6
20190321093804 20 281 0.0 0.0 0.00 0.00 0.00 87 1026.6
20190321091804 20 290 0.0 0.0 0.00 0.00 0.00 86 1026.6
20190321090804 20 291 0.0 0.0 0.00 0.00 0.00 86 1026.5
20190321090304 20 298 0.0 0.0 0.00 0.00 0.00 86 1026.4
20190321084804 20 320 0.0 0.0 0.00 0.00 0.00 86 1026.3
20190321084305 20 286 0.0 0.0 0.00 0.00 0.00 86 1026.3
20190321083804 20 289 0.0 0.0 0.00 0.00 0.00 86 1026.3
20190321083305 20 289 0.0 0.0 0.00 0.00 0.00 86 1026.2
20190321081804 20 297 0.0 0.0 0.00 0.00 0.00 86 1026.1
20190321081304 20 322 0.0 0.0 0.00 0.00 0.00 86 1026.1
20190321074804 20 290 0.0 0.0 0.00 0.00 0.00 85 1026.0
20190321073804 20 10 0.0 0.0 0.00 0.00 0.00 84 1025.8
20190321073305 20 273 0.0 0.0 0.00 0.00 0.00 84 1025.8
20190321071804 21 309 0.0 0.0 0.00 0.00 0.00 83 1025.6
20190321071305 21 313 0.0 0.0 0.00 0.00 0.00 83 1025.6
20190321070804 21 297 0.0 0.0 0.00 0.00 0.00 83 1025.5
20190321070305 21 314 0.0 0.0 0.00 0.00 0.00 82 1025.5
20190321063804 21 342 0.0 0.0 0.00 0.00 0.00 80 1025.3
20190321063305 21 55 0.0 0.0 0.00 0.00 0.00 80 1025.3
20190321061305 22 334 0.0 0.0 0.00 0.00 0.00 78 1025.2
20190321060804 22 311 0.0 0.0 0.00 0.00 0.00 77 1025.2
20190321060305 22 2 0.0 0.0 0.00 0.00 0.00 76 1025.2
20190321054805 22 346 0.0 0.0 0.00 0.00 0.00 74 1025.0
20190321053805 23 305 0.0 0.0 0.00 0.00 0.00 72 1025.0
20190321053304 24 7 0.0 0.0 0.00 0.00 0.00 70 1024.9
20190321051304 25 304 0.0 0.0 0.00 0.00 0.00 64 1024.7
20190321050805 25 359 0.0 0.0 0.00 0.00 0.00 64 1024.7
20190321044305 25 330 0.0 0.0 0.00 0.00 0.00 61 1024.7
20190321043305 25 19 0.0 0.0 0.00 0.00 0.00 60 1024.7
20190321041804 26 316 0.0 0.0 0.00 0.00 0.00 59 1024.8
20190321041304 26 297 0.0 0.0 0.00 0.00 0.00 58 1024.8
20190321040805 26 308 0.0 0.0 0.00 0.00 0.00 59 1024.8
20190321034804 26 320 0.0 0.0 0.00 0.00 0.00 59 1024.9
20190321034304 26 287 0.0 0.0 0.00 0.00 0.00 59 1024.9
20190321033804 26 317 0.0 0.0 0.00 0.00 0.00 59 1025.0
20190321031805 26 358 0.0 0.0 0.00 0.00 0.00 59 1025.1
20190321030804 26 335 0.0 0.0 0.00 0.00 0.00 59 1025.2
20190321030304 26 323 0.0 0.0 0.00 0.00 0.00 58 1025.1
20190321024804 26 322 3.2 16.1 0.00 0.00 0.00 58 1025.2
20190321023805 25 338 0.0 0.0 0.00 0.00 0.00 60 1025.3
20190321023305 25 340 0.0 1.6 0.00 0.00 0.00 60 1025.3
20190321021804 25 10 0.0 0.0 0.00 0.00 0.00 59 1025.3
20190321021304 25 356 0.0 0.0 0.00 0.00 0.00 59 1025.3
20190321020804 25 358 0.0 0.0 0.00 0.00 0.00 61 1025.4
20190321014804 26 19 0.0 1.6 0.00 0.00 0.00 59 1025.4
20190321014304 25 313 0.0 0.0 0.00 0.00 0.00 62 1025.5
20190321013805 25 31 0.0 1.6 0.00 0.00 0.00 59 1025.5
20190321013304 25 309 0.0 19.3 0.00 0.00 0.00 62 1025.6
20190321011804 25 16 1.6 12.9 0.00 0.00 0.00 58 1025.7
20190321010805 25 62 0.0 0.0 0.00 0.00 0.00 60 1025.7
20190321004805 25 290 0.0 0.0 0.00 0.00 0.00 62 1025.7
20190321003805 24 20 0.0 0.0 0.00 0.00 0.00 61 1025.9
20190321003305 24 38 0.0 9.7 0.00 0.00 0.00 62 1025.9
20190321001804 25 17 0.0 0.0 0.00 0.00 0.00 64 1025.9
20190321000805 24 18 0.0 0.0 0.00 0.00 0.00 63 1026.0
20190320234805 23 18 0.0 0.0 0.00 0.00 0.00 65 1026.0
20190320234304 23 358 0.0 0.0 0.00 0.00 0.00 67 1026.0
20190320233804 23 8 0.0 1.6 0.00 0.00 0.00 67 1026.1
20190320233304 23 7 0.0 14.5 0.00 0.00 0.00 66 1026.1
20190320231804 23 15 0.0 0.0 0.00 0.00 0.00 66 1026.3
20190320231304 23 69 0.0 0.0 0.00 0.00 0.00 64 1026.3
20190320230305 23 71 0.0 0.0 0.00 0.00 0.00 67 1026.3
20190320224305 23 17 0.0 0.0 0.00 0.00 0.00 68 1026.4
20190320223804 23 85 0.0 0.0 0.00 0.00 0.00 67 1026.3
20190320223304 22 51 0.0 0.0 0.00 0.00 0.00 68 1026.4
20190320221807 22 37 0.0 0.0 0.00 0.00 0.00 69 1026.5
20190320220305 22 44 0.0 0.0 0.00 0.00 0.00 70 1026.6
20190320214804 21 55 0.0 0.0 0.00 0.00 0.00 75 1026.6
20190320214304 21 90 0.0 0.0 0.00 0.00 0.00 77 1026.6
20190320213805 21 103 0.0 0.0 0.00 0.00 0.00 78 1026.5
20190320213304 21 141 0.0 0.0 0.00 0.00 0.00 79 1026.6
20190320211804 21 142 0.0 0.0 0.00 0.00 0.00 81 1026.5
20190320211305 21 80 0.0 0.0 0.00 0.00 0.00 81 1026.5
20190320210304 20 115 0.0 0.0 0.00 0.00 0.00 85 1026.5
20190320204805 20 111 0.0 0.0 0.00 0.00 0.00 85 1026.5
20190320203805 20 104 0.0 0.0 0.00 0.00 0.00 86 1026.4
20190320203304 20 75 0.0 0.0 0.00 0.00 0.00 86 1026.4
20190320201805 20 99 0.0 0.0 0.00 0.00 0.00 87 1026.4
20190320201305 20 94 0.0 0.0 0.00 0.00 0.00 89 1026.3
20190320200805 19 70 0.0 0.0 0.00 0.00 0.00 89 1026.3